Thermopolis, WY

10:18 PM MDT on May 28, 2017 (GMT -0600)
Thermopolis

Weather History for KTBX - June, 2013

Change the Weather History Date:

Monday, June 3, 2013

  Actual Average (KWRL) Record (KWRL)
Temperature  
Mean Temperature 50 °F -  
Max Temperature 64 °F 78 °F 94 °F (1988)
Min Temperature 37 °F 48 °F 36 °F (2011)
Degree Days  
Heating Degree Days 14    
Moisture  
Dew Point 31 °F    
Average Humidity 53    
Maximum Humidity 100    
Minimum Humidity 19    
Precipitation  
Precipitation 0.00 in - - ()
Sea Level Pressure  
Sea Level Pressure 30.01 in    
Wind  
Wind Speed 17 mph (NW)    
Max Wind Speed 30 mph    
Max Gust Speed 46 mph    
Visibility 10 miles    
Events Fog    
Averages and records for this station are not official NWS values.
T = Trace of Precipitation, MM = Missing Value Source: NWS Daily Summary

Daily Weather History Graph

Daily Weather History Graph

Search for Another Location

Airport or City:

Trip Planner

Search our weather history database for the weather conditions in past years. The results will help you decide how hot, cold, wet, or windy it might be!

Date:

Astronomy

Jun. 03, 2013 Rise Set
Actual Time 5:33 AM MDT 8:48 PM MDT
Civil Twilight 4:58 AM MDT 9:23 PM MDT
Nautical Twilight 4:13 AM MDT 10:09 PM MDT
Astronomical Twilight 3:18 AM MDT 11:05 PM MDT
Moon 2:41 AM MDT (6/3) 4:15 PM MDT (6/3)
Length of Visible Light 16h 25m
Length of Day
15h 14m
Waning Crescent, 21% of the Moon is Illuminated
Jun 3
Waning Crescent
Jun 8
New
Jun 16
First Quarter
Jun 23
Full
Jun 29
Last Quarter

Hourly Weather History & Observations

Time (MDT) Temp. Windchill Dew Point Humidity Pressure Visibility Wind Dir Wind Speed Gust Speed Precip Events Conditions
12:15 AM 64.4 °F - 21.2 °F 19% 29.91 in 10.0 mi SSE 10.4 mph - N/A   Scattered Clouds
12:35 AM 64.4 °F - 21.2 °F 19% 29.90 in 10.0 mi SSW 4.6 mph - N/A   Scattered Clouds
12:55 AM 55.4 °F - 33.8 °F 44% 29.90 in 10.0 mi NNW 21.9 mph - N/A   Scattered Clouds
1:15 AM 55.4 °F - 33.8 °F 44% 29.90 in 10.0 mi North 17.3 mph - N/A   Scattered Clouds
1:35 AM 53.6 °F - 35.6 °F 51% 29.89 in 10.0 mi NNW 19.6 mph - N/A   Mostly Cloudy
1:55 AM 51.8 °F - 37.4 °F 58% 29.89 in 10.0 mi North 19.6 mph - N/A   Mostly Cloudy
2:15 AM 51.8 °F - 39.2 °F 62% 29.89 in 10.0 mi NNW 21.9 mph - N/A   Scattered Clouds
2:35 AM 50.0 °F - 41.0 °F 71% 29.91 in 10.0 mi NNW 18.4 mph - N/A   Mostly Cloudy
2:55 AM 50.0 °F - 41.0 °F 71% 29.90 in 10.0 mi NNW 19.6 mph - N/A   Overcast
3:15 AM 50.0 °F - 41.0 °F 71% 29.90 in 10.0 mi NNW 21.9 mph - N/A   Overcast
3:35 AM 50.0 °F - 42.8 °F 76% 29.91 in 10.0 mi WNW 17.3 mph - N/A   Mostly Cloudy
3:55 AM 48.2 °F - 42.8 °F 82% 29.90 in 10.0 mi NNW 17.3 mph - N/A   Overcast
4:15 AM 48.2 °F - 42.8 °F 82% 29.89 in 10.0 mi North 10.4 mph 21.9 mph N/A   Overcast
4:35 AM 50.0 °F - 41.0 °F 71% 29.90 in 10.0 mi NW 16.1 mph 19.6 mph N/A   Mostly Cloudy
4:55 AM 44.6 °F 36.6 °F 42.8 °F 93% 29.91 in 10.0 mi NNW 19.6 mph 27.6 mph N/A   Scattered Clouds
5:15 AM 44.6 °F 36.9 °F 42.8 °F 93% 29.91 in 10.0 mi NNW 18.4 mph - N/A   Scattered Clouds
5:35 AM 42.8 °F 33.8 °F 42.8 °F 100% 29.91 in 0.2 mi NNW 21.9 mph 29.9 mph N/A Fog Fog
5:55 AM 42.8 °F 33.8 °F 41.0 °F 93% 29.92 in 0.2 mi NW 21.9 mph 27.6 mph N/A   Unknown
6:15 AM 42.8 °F 33.8 °F 41.0 °F 93% 29.93 in 0.2 mi NNW 21.9 mph - N/A   Unknown
6:35 AM 41.0 °F 32.8 °F 41.0 °F 100% 29.93 in 0.2 mi North 16.1 mph - N/A   Unknown
6:55 AM 41.0 °F 34.7 °F 41.0 °F 100% 29.94 in 10.0 mi NNW 10.4 mph - N/A   Scattered Clouds
7:15 AM 42.8 °F 35.4 °F 41.0 °F 93% 29.94 in 10.0 mi NNW 15.0 mph - N/A   Clear
7:35 AM 44.6 °F 40.2 °F 39.2 °F 81% 29.96 in 10.0 mi North 8.1 mph - N/A   Clear
7:55 AM 48.2 °F - 32.0 °F 54% 29.95 in 10.0 mi WSW 16.1 mph 23.0 mph N/A   Clear
8:15 AM 50.0 °F - 32.0 °F 50% 29.96 in 10.0 mi WSW 16.1 mph 23.0 mph N/A   Clear
8:35 AM 51.8 °F - 28.4 °F 41% 29.96 in 10.0 mi WSW 13.8 mph 20.7 mph N/A   Clear
8:55 AM 51.8 °F - 26.6 °F 38% 29.97 in 10.0 mi SW 11.5 mph 23.0 mph N/A   Clear
9:15 AM 51.8 °F - 26.6 °F 38% 29.97 in 10.0 mi WSW 16.1 mph 29.9 mph N/A   Clear
9:35 AM 51.8 °F - 23.0 °F 33% 29.98 in 10.0 mi WSW 20.7 mph 28.8 mph N/A   Clear
9:55 AM 51.8 °F - 21.2 °F 30% 29.98 in 10.0 mi WSW 24.2 mph 32.2 mph N/A   Clear
10:15 AM 51.8 °F - 17.6 °F 26% 29.98 in 10.0 mi WSW 28.8 mph 46.0 mph N/A   Clear
10:35 AM 51.8 °F - 19.4 °F 28% 29.98 in 10.0 mi SSW 29.9 mph 39.1 mph N/A   Clear
10:55 AM 53.6 °F - 21.2 °F 28% 29.98 in 10.0 mi SW 24.2 mph 34.5 mph N/A   Clear
11:15 AM 53.6 °F - 19.4 °F 26% 29.99 in 10.0 mi SW 19.6 mph 35.7 mph N/A   Clear
11:35 AM 53.6 °F - 21.2 °F 28% 29.99 in 10.0 mi SSW 23.0 mph 34.5 mph N/A   Clear
11:55 AM 55.4 °F - 23.0 °F 29% 29.99 in 10.0 mi SW 17.3 mph 29.9 mph N/A   Clear
12:15 PM 53.6 °F - 32.0 °F 44% 30.00 in 10.0 mi WNW 6.9 mph 21.9 mph N/A   Scattered Clouds
12:35 PM 51.8 °F - 32.0 °F 47% 30.00 in 10.0 mi WNW 6.9 mph 17.3 mph N/A   Mostly Cloudy
12:55 PM 53.6 °F - 32.0 °F 44% 30.01 in 10.0 mi NW 8.1 mph - N/A   Mostly Cloudy
1:15 PM 55.4 °F - 32.0 °F 41% 30.02 in 10.0 mi SSW 8.1 mph - N/A   Overcast
1:35 PM 57.2 °F - 30.2 °F 36% 30.00 in 10.0 mi North 15.0 mph 21.9 mph N/A   Overcast
1:55 PM 57.2 °F - 23.0 °F 27% 30.01 in 10.0 mi SW 19.6 mph 28.8 mph N/A   Mostly Cloudy
2:15 PM 57.2 °F - 23.0 °F 27% 30.00 in 10.0 mi SSW 24.2 mph 36.8 mph N/A   Clear
2:35 PM 59.0 °F - 24.8 °F 27% 30.01 in 10.0 mi SW 21.9 mph 31.1 mph N/A   Scattered Clouds
2:55 PM 59.0 °F - 21.2 °F 23% 30.00 in 10.0 mi SSW 20.7 mph 35.7 mph N/A   Mostly Cloudy
3:15 PM 53.6 °F - 32.0 °F 44% 30.02 in 10.0 mi NW 21.9 mph - N/A   Overcast
3:35 PM 55.4 °F - 32.0 °F 41% 30.03 in 10.0 mi NW 15.0 mph - N/A   Mostly Cloudy
3:55 PM 53.6 °F - 32.0 °F 44% 30.04 in 10.0 mi NW 16.1 mph - N/A   Mostly Cloudy
4:15 PM 53.6 °F - 28.4 °F 38% 30.05 in 10.0 mi North 9.2 mph - N/A   Overcast
4:35 PM 55.4 °F - 28.4 °F 36% 30.04 in 10.0 mi North 12.7 mph - N/A   Overcast
4:55 PM 53.6 °F - 30.2 °F 41% 30.05 in 10.0 mi North 9.2 mph - N/A   Overcast
5:15 PM 53.6 °F - 26.6 °F 35% 30.05 in 10.0 mi North 16.1 mph 20.7 mph N/A   Mostly Cloudy
5:35 PM 53.6 °F - 26.6 °F 35% 30.07 in 10.0 mi NW 9.2 mph - N/A   Mostly Cloudy
5:55 PM 55.4 °F - 26.6 °F 33% 30.07 in 10.0 mi NNE 12.7 mph - N/A   Mostly Cloudy
6:15 PM 55.4 °F - 26.6 °F 33% 30.08 in 10.0 mi WSW 3.5 mph - N/A   Mostly Cloudy
6:35 PM 55.4 °F - 26.6 °F 33% 30.07 in 10.0 mi NNW 12.7 mph - N/A   Scattered Clouds
6:55 PM 53.6 °F - 26.6 °F 35% 30.08 in 10.0 mi North 9.2 mph 16.1 mph N/A   Scattered Clouds
7:15 PM 51.8 °F - 24.8 °F 35% 30.09 in 10.0 mi North 18.4 mph - N/A   Clear
7:35 PM 50.0 °F - 26.6 °F 40% 30.10 in 10.0 mi North 18.4 mph - N/A   Clear
7:55 PM 50.0 °F - 28.4 °F 43% 30.11 in 10.0 mi NNW 17.3 mph - N/A   Mostly Cloudy
8:15 PM 51.8 °F - 26.6 °F 38% 30.12 in 10.0 mi North 11.5 mph - N/A   Scattered Clouds
8:35 PM 50.0 °F - 26.6 °F 40% 30.12 in 10.0 mi NNW 18.4 mph 21.9 mph N/A   Clear
8:55 PM 48.2 °F - 32.0 °F 54% 30.12 in 10.0 mi NNW 27.6 mph 34.5 mph N/A   Clear
9:15 PM 44.6 °F 35.3 °F 33.8 °F 66% 30.14 in 10.0 mi NNW 26.5 mph - N/A   Clear
9:35 PM 44.6 °F 36.4 °F 33.8 °F 66% 30.15 in 10.0 mi NNW 20.7 mph - N/A   Clear
9:55 PM 42.8 °F 33.5 °F 33.8 °F 70% 30.15 in 10.0 mi NNW 23.0 mph - N/A   Clear
10:15 PM 42.8 °F 33.5 °F 33.8 °F 70% 30.16 in 10.0 mi NNW 23.0 mph - N/A   Clear
10:35 PM 42.8 °F 33.1 °F 33.8 °F 70% 30.16 in 10.0 mi North 25.3 mph - N/A   Clear
10:55 PM 41.0 °F 31.1 °F 33.8 °F 76% 30.17 in 10.0 mi NNW 23.0 mph - N/A   Clear
11:15 PM 41.0 °F 30.9 °F 33.8 °F 76% 30.17 in 10.0 mi NNW 24.2 mph - N/A   Clear
11:35 PM 37.4 °F 25.0 °F 35.6 °F 93% 30.17 in 10.0 mi NNW 29.9 mph - N/A   Clear
11:55 PM 37.4 °F 25.9 °F 35.6 °F 93% 30.18 in 10.0 mi NNW 25.3 mph - N/A   Clear